Main page
METAR-TAF:

METAR-TAF

Airports :

Tabas Airport

Tabas, Iran

latitude: 33-36N, longitude: 056-55E, elevation: 710 m

Current weather observation

The report was made 1 hour and 32 minutes ago, at 05:00 UTC
Wind 2 kt from the East
Temperature 6°C
Humidity 31%
Pressure 1019 hPa

METAR: OIMT 230500Z AUTO 09002KT //// // ////// 06/M10 Q1019

Time: 10:02 (06:32 UTC)


TAF: missing

Weather observations and forecasts of more than 4000 airports (METAR and TAF reports).

The available stations are represented by yellow and red dots on the map.

Hover mouse over dot to see the name of the station.

Then click to see weather observations and forecasts.

To change the map : click on the green buttons with a black cross to zoom in, on the green button with a dash to zoom out, or on the green arrows for adjacent maps.


METAR-TAF: